FW8419 Weather Reports


time (UTC)temp
F
wind
direction
speed
knots
gust
knots
rain 1hr
in
rain 24hr
in
rain mn
in
humidity
%
barometer
mb
20260506122122 54 145 2.6 11.3 0.00 0.00 0.00 85 1017.1
20260506121124 54 145 2.6 11.3 0.00 0.00 0.00 84 1017.2
20260506120122 55 142 1.7 7.0 0.00 0.00 0.00 84 1017.1
20260506115124 55 136 1.7 7.0 0.00 0.00 0.00 83 1017.2
20260506114124 55 130 1.7 5.2 0.00 0.00 0.00 83 1017.1
20260506113144 55 138 1.7 7.0 0.00 0.00 0.00 84 1016.9
20260506112122 55 128 1.7 7.0 0.00 0.00 0.00 85 1016.8
20260506111122 55 128 2.6 8.7 0.00 0.00 0.00 85 1016.7
20260506110122 55 124 2.6 8.7 0.00 0.00 0.00 85 1016.7
20260506105122 55 129 2.6 8.7 0.00 0.00 0.00 85 1016.6
20260506104143 55 125 2.6 9.6 0.00 0.00 0.00 85 1016.4
20260506103122 55 121 2.6 8.7 0.00 0.00 0.00 85 1016.4
20260506102122 55 116 0.9 5.2 0.00 0.00 0.00 85 1016.3
20260506101122 55 124 1.7 7.0 0.00 0.00 0.00 84 1016.1
20260506100123 55 126 2.6 8.7 0.00 0.00 0.00 84 1016.1
20260506095122 55 115 2.6 5.2 0.00 0.00 0.00 84 1015.9
20260506094124 55 117 2.6 8.7 0.00 0.00 0.00 84 1015.8
20260506093122 55 117 1.7 7.0 0.00 0.00 0.00 84 1015.7
20260506092122 55 120 1.7 9.6 0.00 0.00 0.00 84 1015.7
20260506091122 55 122 2.6 9.6 0.00 0.00 0.00 85 1015.7
20260506090122 55 127 2.6 8.7 0.00 0.00 0.00 85 1015.6
20260506085122 55 120 3.5 11.3 0.00 0.00 0.00 85 1015.5
20260506084122 55 118 1.7 5.2 0.00 0.00 0.00 85 1015.4
20260506083122 56 118 1.7 5.2 0.00 0.00 0.00 84 1015.4
20260506082124 56 120 1.7 5.2 0.00 0.00 0.00 84 1015.5
20260506081123 56 115 2.6 8.7 0.00 0.00 0.00 84 1015.4
20260506080122 56 124 2.6 9.6 0.00 0.00 0.00 84 1015.3
20260506073122 56 125 3.5 9.6 0.00 0.00 0.00 84 1014.9
20260506072124 56 123 3.5 11.3 0.00 0.00 0.00 84 1015.0
20260506071122 57 128 3.5 9.6 0.00 0.00 0.00 84 1015.1
20260506070124 57 125 2.6 8.7 0.00 0.00 0.00 83 1014.9
20260506062122 58 119 0.9 4.3 0.00 0.00 0.00 80 1014.7
20260506061122 58 120 0.9 2.6 0.00 0.00 0.00 80 1014.6
20260506060122 58 127 0.9 4.3 0.00 0.00 0.00 80 1014.5
20260506051143 60 135 0.0 2.6 0.00 0.00 0.00 76 1014.2
20260506050122 60 137 0.0 1.7 0.00 0.00 0.00 75 1014.2
20260506045122 61 135 0.9 4.3 0.00 0.00 0.00 74 1014.1
20260506044143 61 119 0.0 2.6 0.00 0.00 0.00 74 1014.1
20260506043124 61 128 0.9 5.2 0.00 0.00 0.00 73 1014.1
20260506042143 61 102 0.0 2.6 0.00 0.00 0.00 72 1014.0
20260506041122 62 129 0.9 4.3 0.00 0.00 0.00 72 1013.9
20260506040122 62 128 0.9 2.6 0.00 0.00 0.00 71 1013.7
20260506035122 62 133 0.9 2.6 0.00 0.00 0.00 70 1013.6
20260506034122 62 132 1.7 4.3 0.00 0.00 0.00 69 1013.5
20260506033123 63 142 0.9 4.3 0.00 0.00 0.00 69 1013.4
20260506032122 63 167 0.0 2.6 0.00 0.00 0.00 68 1013.2
20260506031124 63 164 0.9 7.0 0.00 0.00 0.00 68 1013.2
20260506030122 63 246 0.9 4.3 0.00 0.00 0.00 67 1013.1
20260506025124 64 232 0.0 4.3 0.00 0.00 0.00 66 1013.1
20260506024144 64 217 0.9 7.0 0.00 0.00 0.00 66 1013.0
20260506023122 65 232 0.9 5.2 0.00 0.00 0.00 64 1012.9
20260506022145 66 262 1.7 8.7 0.00 0.00 0.00 65 1013.1
20260506021122 65 252 0.9 5.2 0.00 0.00 0.00 65 1013.1
20260506020143 65 262 2.6 9.6 0.00 0.00 0.00 65 1013.1
20260506015123 65 234 1.7 7.0 0.00 0.00 0.00 65 1013.2
20260506014122 65 224 2.6 8.7 0.00 0.00 0.00 64 1013.2
20260506013122 65 236 2.6 12.2 0.00 0.00 0.00 64 1013.1
20260506012122 66 226 2.6 11.3 0.00 0.00 0.00 63 1013.3
20260506011122 66 234 2.6 12.2 0.00 0.00 0.00 65 1013.2
20260506010122 66 234 3.5 11.3 0.00 0.00 0.00 63 1013.4
20260506005122 66 231 4.3 13.9 0.00 0.00 0.00 64 1013.3
20260506004122 67 232 2.6 11.3 0.00 0.00 0.00 62 1013.2
20260506003122 67 224 2.6 13.9 0.00 0.00 0.00 63 1013.1
20260506002122 67 228 2.6 9.6 0.00 0.00 0.00 61 1013.3
20260506001122 68 219 3.5 12.2 0.00 0.00 0.00 60 1013.3
20260506000145 67 223 1.7 8.7 0.00 0.00 0.00 62 1013.3
20260505235123 68 231 4.3 12.2 0.00 0.00 0.00 61 1013.4
20260505234122 68 243 1.7 8.7 0.00 0.00 0.00 63 1013.4
20260505233145 68 228 2.6 8.7 0.00 0.00 0.00 62 1013.5
20260505232122 67 270 2.6 11.3 0.00 0.00 0.00 63 1013.7
20260505231143 67 238 2.6 11.3 0.00 0.00 0.00 63 1013.8
20260505230124 67 263 2.6 9.6 0.00 0.00 0.00 63 1014.0
20260505225145 67 231 2.6 11.3 0.00 0.00 0.00 62 1014.1
20260505224122 68 252 1.7 11.3 0.00 0.00 0.00 62 1014.0
20260505223122 67 255 2.6 16.5 0.00 0.00 0.00 61 1014.1
20260505222122 67 276 3.5 9.6 0.00 0.00 0.00 62 1014.2
20260505221124 67 242 2.6 11.3 0.00 0.00 0.00 62 1014.2
20260505220124 67 261 3.5 12.2 0.00 0.00 0.00 63 1014.3
20260505215122 67 256 2.6 12.2 0.00 0.00 0.00 63 1014.2
20260505214124 67 278 3.5 13.9 0.00 0.00 0.00 63 1014.3
20260505213124 67 254 2.6 9.6 0.00 0.00 0.00 63 1014.3
20260505212122 67 269 2.6 11.3 0.00 0.00 0.00 65 1014.4
20260505211122 66 297 4.3 16.5 0.00 0.00 0.00 64 1014.4
20260505210122 66 286 2.6 12.2 0.00 0.00 0.00 65 1014.5
20260505205124 66 285 2.6 12.2 0.00 0.00 0.00 64 1014.6
20260505204124 67 253 2.6 12.2 0.00 0.00 0.00 64 1014.7
20260505203124 66 237 2.6 9.6 0.00 0.00 0.00 64 1014.7
20260505202122 66 161 2.6 11.3 0.00 0.00 0.00 66 1014.7
20260505201144 66 233 3.5 15.6 0.00 0.00 0.00 66 1014.8
20260505200123 65 243 1.7 8.7 0.00 0.00 0.00 68 1014.8
20260505195124 64 231 3.5 16.5 0.00 0.00 0.00 68 1014.8
20260505194122 64 238 2.6 13.9 0.00 0.00 0.00 69 1014.9
20260505193143 64 225 3.5 13.9 0.00 0.00 0.00 69 1014.8
20260505192122 63 234 2.6 11.3 0.00 0.00 0.00 69 1015.0
20260505191122 62 268 2.6 12.2 0.00 0.00 0.00 70 1015.0
20260505190143 62 220 4.3 12.2 0.00 0.00 0.00 73 1014.9
20260505185124 61 224 5.2 16.5 0.00 0.00 0.00 74 1015.0
20260505184123 62 231 5.2 16.5 0.00 0.00 0.00 74 1015.1
20260505183143 62 243 3.5 12.2 0.00 0.00 0.00 73 1015.0
20260505182124 62 223 2.6 12.2 0.00 0.00 0.00 74 1014.9
20260505181122 62 240 3.5 13.9 0.00 0.00 0.00 74 1014.8
20260505180122 62 228 3.5 9.6 0.00 0.00 0.00 73 1014.7
20260505175122 62 268 2.6 9.6 0.00 0.00 0.00 75 1014.7
20260505174143 62 235 3.5 9.6 0.00 0.00 0.00 73 1014.8
20260505173122 62 271 1.7 8.7 0.00 0.00 0.00 73 1014.8
20260505172143 62 244 1.7 11.3 0.00 0.00 0.00 74 1014.8
20260505171122 61 247 0.9 5.2 0.00 0.00 0.00 76 1014.8
20260505170122 61 253 2.6 9.6 0.00 0.00 0.00 76 1014.9
20260505165122 60 215 2.6 11.3 0.00 0.00 0.00 77 1014.9
20260505164122 60 212 2.6 9.6 0.00 0.00 0.00 77 1014.9
20260505163124 60 211 1.7 8.7 0.00 0.00 0.00 77 1014.8
20260505162122 60 151 2.6 12.2 0.00 0.00 0.00 77 1014.8
20260505161122 60 152 3.5 11.3 0.00 0.00 0.00 77 1014.7
20260505160124 59 199 1.7 8.7 0.00 0.00 0.00 79 1014.7
20260505153124 59 160 2.6 11.3 0.00 0.00 0.00 77 1014.6
20260505152122 59 170 1.7 9.6 0.00 0.00 0.00 77 1014.6
20260505151124 58 149 2.6 11.3 0.00 0.00 0.00 78 1014.6
20260505150124 58 156 1.7 8.7 0.00 0.00 0.00 78 1014.5
20260505140122 57 133 0.9 4.3 0.00 0.00 0.00 80 1013.9
20260505130122 56 125 0.9 4.3 0.00 0.00 0.00 78 1013.1
20260505124122 56 130 0.0 2.6 0.00 0.00 0.00 78 1012.9
20260505123122 56 130 0.9 4.3 0.00 0.00 0.00 78 1012.8